Powrót do katalogu

FENGYUN 1C DEB

AktywnySSO
NORAD 30873·DEBRIS·🇨🇳 China

Wystrzelony May 10, 1999 z Taiyuan Satellite Launch Center

Loading…

Następne Przeloty (najbliższe 24 godziny)

TLE

ŚwieżeSource: Space-Track

Epoka: Sep 14, 2026, 22:51 UTC

1 30873U 99025AXK 26257.95257135  .00000175  00000-0  98186-4 0  9994
2 30873  98.6223 255.7706 0107775 210.8867 148.5941 14.19347826 11115

Śledź FENGYUN 1C DEB w czasie rzeczywistym z AllMySat

Download on the App Store